Location: Berg
(47.2344°N, 9.5296°E)
Time: 15:32:30
(UTC+00:00)

Cosmos 44 - Pass Details

Date: 13 May 2021
Orbit: 571 x 791 km, 65.1° (Epoch: 11 June)

Event Time Altitude Azimuth Distance (km) Brightness Sun altitude
Rises 19:34:25 0° 325° (NW) 3,296 8.5 -7.3°
Reaches altitude 10° 19:37:20 10° 339° (NNW) 2,365 7.1 -7.6°
Maximum altitude 19:41:43 24° 32° (NNE) 1,589 5.2 -8.2°
Drops below altitude 10° 19:46:00 10° 86° (E) 2,314 5.6 -8.8°
Enters shadow 19:47:23 - 94° (E) 2,733 5.9 -9.0°
